Location: Beacon Field Observatory
(38.7700°N, 77.0829°W)
Time: 18:06:31
(UTC-05:00)

KKS-1 - Visible Passes

Search period start: 05 December 2019 00:00
Search period end: 15 December 2019 00:00
Orbit: 637 x 650 km, 98.3° (Epoch: 05 December)

Date Brightness Start Highest point End Pass type
(mag) Time Alt. Az. Time Alt. Az. Time Alt. Az.
06 Dec ? 05:37:20 10° E 05:39:12 13° ENE 05:41:05 10° NE visible
07 Dec ? 06:00:05 10° ESE 06:03:27 22° ENE 06:06:51 10° NNE visible
08 Dec ? 06:23:43 10° SE 06:27:48 39° ENE 06:31:55 10° N visible
10 Dec ? 05:38:47 10° E 05:40:44 13° ENE 05:42:42 10° NE visible
11 Dec ? 06:01:35 10° ESE 06:04:59 22° ENE 06:08:25 10° NNE visible
12 Dec ? 06:25:14 10° SE 06:29:20 40° ENE 06:33:28 10° N visible
14 Dec ? 05:40:13 10° E 05:42:16 13° ENE 05:44:19 10° NE visible
